TimeEST,TemperatureF,Dew PointF,Humidity,Sea Level PressureIn,VisibilityMPH,Wind Direction,Wind SpeedMPH,Gust SpeedMPH,PrecipitationIn,Events,Conditions,WindDirDegrees,DateUTC
12:10 AM,27.5,16.7,64,30.16,10.0,WSW,3.5,-,N/A,,Overcast,250,2014-02-25 05:10:00
12:30 AM,27.7,15.3,60,30.15,10.0,WSW,3.5,-,N/A,,Overcast,250,2014-02-25 05:30:00
12:50 AM,28.2,15.6,59,30.15,10.0,West,3.5,-,N/A,,Overcast,260,2014-02-25 05:50:00
1:10 AM,28.0,15.8,60,30.15,10.0,SW,3.5,-,N/A,,Overcast,230,2014-02-25 06:10:00
1:30 AM,28.4,13.8,54,30.14,10.0,WSW,3.5,-,N/A,,Overcast,240,2014-02-25 06:30:00
1:50 AM,28.6,13.6,54,30.14,10.0,WSW,4.6,-,N/A,,Overcast,250,2014-02-25 06:50:00
2:10 AM,28.4,14.9,57,30.13,10.0,WSW,4.6,-,N/A,,Overcast,240,2014-02-25 07:10:00
2:50 AM,28.4,15.4,58,30.11,10.0,Calm,Calm,-,N/A,,Overcast,0,2014-02-25 07:50:00
3:10 AM,28.4,14.2,55,30.11,10.0,Calm,Calm,-,N/A,,Overcast,0,2014-02-25 08:10:00
4:50 AM,27.1,15.3,61,30.11,10.0,West,5.8,-,N/A,,Overcast,280,2014-02-25 09:50:00
5:10 AM,27.1,15.1,60,30.12,10.0,WNW,4.6,-,N/A,,Overcast,290,2014-02-25 10:10:00
5:30 AM,26.8,15.4,62,30.13,10.0,NW,8.1,-,N/A,Snow,Light Snow,320,2014-02-25 10:30:00
5:50 AM,25.3,17.2,71,30.14,4.0,NW,9.2,-,N/A,Snow,Light Snow,310,2014-02-25 10:50:00
6:10 AM,24.4,17.2,74,30.15,4.0,NW,8.1,-,N/A,Snow,Light Snow,320,2014-02-25 11:10:00
6:30 AM,23.4,18.3,81,30.16,1.2,NW,3.5,-,N/A,Snow,Snow,310,2014-02-25 11:30:00
6:50 AM,22.8,19.0,85,30.17,1.8,West,5.8,-,N/A,Snow,Light Snow,280,2014-02-25 11:50:00
7:10 AM,22.5,18.9,86,30.15,1.8,West,5.8,-,N/A,Snow,Light Snow,270,2014-02-25 12:10:00
7:30 AM,22.1,18.5,86,30.15,5.0,Calm,Calm,-,N/A,Snow,Light Snow,0,2014-02-25 12:30:00
7:50 AM,22.3,19.0,87,30.16,5.0,West,3.5,-,N/A,Snow,Light Snow,260,2014-02-25 12:50:00
8:10 AM,22.8,19.2,86,30.16,10.0,SW,3.5,-,N/A,Snow,Light Snow,230,2014-02-25 13:10:00
8:30 AM,23.0,19.2,85,30.17,10.0,West,3.5,-,N/A,Snow,Light Snow,260,2014-02-25 13:30:00
8:50 AM,23.4,18.7,82,30.17,10.0,WSW,4.6,-,N/A,,Overcast,250,2014-02-25 13:50:00
9:10 AM,23.7,18.3,80,30.18,10.0,West,4.6,-,N/A,,Overcast,260,2014-02-25 14:10:00
9:30 AM,24.3,18.0,77,30.18,10.0,West,4.6,-,N/A,,Overcast,270,2014-02-25 14:30:00
9:50 AM,24.6,18.1,76,30.18,10.0,WSW,6.9,-,N/A,,Overcast,250,2014-02-25 14:50:00
10:10 AM,24.8,17.6,74,30.18,10.0,West,6.9,-,N/A,,Overcast,280,2014-02-25 15:10:00
10:30 AM,25.2,17.1,71,30.17,10.0,West,4.6,-,N/A,,Overcast,260,2014-02-25 15:30:00
10:50 AM,25.7,16.7,69,30.17,10.0,West,8.1,-,N/A,,Overcast,280,2014-02-25 15:50:00
11:10 AM,26.4,16.2,65,30.17,10.0,West,6.9,-,N/A,,Overcast,260,2014-02-25 16:10:00
11:30 AM,26.4,15.8,64,30.17,10.0,Calm,Calm,-,N/A,,Overcast,0,2014-02-25 16:30:00
12:10 PM,27.1,16.0,63,30.16,10.0,West,3.5,-,N/A,,Overcast,270,2014-02-25 17:10:00
12:30 PM,27.5,16.5,63,30.15,10.0,WNW,4.6,-,N/A,,Overcast,290,2014-02-25 17:30:00
12:50 PM,28.0,16.0,61,30.14,10.0,Calm,Calm,-,N/A,,Overcast,0,2014-02-25 17:50:00
1:10 PM,28.2,17.2,63,30.13,10.0,WSW,8.1,-,N/A,,Overcast,250,2014-02-25 18:10:00
1:30 PM,28.4,16.0,60,30.12,10.0,WNW,8.1,-,N/A,,Overcast,290,2014-02-25 18:30:00
1:50 PM,29.1,17.2,61,30.12,10.0,WSW,9.2,-,N/A,,Overcast,250,2014-02-25 18:50:00
2:10 PM,29.5,16.9,59,30.11,10.0,WSW,11.5,17.3,N/A,,Overcast,250,2014-02-25 19:10:00
2:30 PM,29.3,16.2,58,30.11,10.0,West,3.5,-,N/A,,Overcast,270,2014-02-25 19:30:00
2:50 PM,31.1,17.8,58,30.10,10.0,West,11.5,-,N/A,,Overcast,260,2014-02-25 19:50:00
3:10 PM,30.2,16.9,58,30.10,10.0,West,8.1,-,N/A,,Overcast,280,2014-02-25 20:10:00
3:30 PM,30.2,17.1,58,30.10,10.0,West,8.1,-,N/A,,Overcast,270,2014-02-25 20:30:00
3:55 PM,30.4,16.3,56,30.09,10.0,WSW,6.9,-,N/A,,Overcast,250,2014-02-25 20:55:00
4:10 PM,30.2,15.6,55,30.09,10.0,West,6.9,-,N/A,,Overcast,270,2014-02-25 21:10:00
4:30 PM,30.2,16.3,56,30.08,10.0,SW,8.1,-,N/A,,Overcast,220,2014-02-25 21:30:00
4:50 PM,30.2,16.0,56,30.08,10.0,West,8.1,-,N/A,,Overcast,260,2014-02-25 21:50:00
5:10 PM,30.0,17.1,59,30.08,10.0,West,9.2,-,N/A,,Overcast,260,2014-02-25 22:10:00
5:30 PM,29.7,17.1,59,30.09,10.0,West,8.1,-,N/A,,Overcast,270,2014-02-25 22:30:00
5:50 PM,29.3,17.6,62,30.09,10.0,West,9.2,-,N/A,,Overcast,260,2014-02-25 22:50:00
6:10 PM,29.1,17.8,63,30.09,10.0,West,6.9,-,N/A,,Overcast,280,2014-02-25 23:10:00
6:30 PM,29.1,17.1,61,30.08,10.0,West,3.5,-,N/A,,Mostly Cloudy,280,2014-02-25 23:30:00
6:50 PM,29.1,16.9,60,30.08,10.0,West,6.9,-,N/A,,Overcast,280,2014-02-25 23:50:00
7:10 PM,28.9,16.3,59,30.08,10.0,West,3.5,-,N/A,,Overcast,280,2014-02-26 00:10:00
7:30 PM,28.9,15.8,58,30.07,10.0,West,4.6,-,N/A,,Overcast,270,2014-02-26 00:30:00
7:50 PM,28.4,16.2,60,30.07,10.0,West,3.5,-,N/A,,Mostly Cloudy,270,2014-02-26 00:50:00
8:10 PM,28.4,17.1,63,30.06,10.0,Calm,Calm,-,N/A,,Mostly Cloudy,0,2014-02-26 01:10:00
8:35 PM,28.2,17.4,64,30.06,10.0,West,3.5,-,N/A,,Overcast,270,2014-02-26 01:35:00
8:50 PM,27.9,18.3,67,30.06,10.0,Calm,Calm,-,N/A,,Overcast,0,2014-02-26 01:50:00
9:10 PM,28.4,17.1,63,30.06,10.0,West,4.6,-,N/A,,Overcast,260,2014-02-26 02:10:00
9:30 PM,28.2,17.1,63,30.06,10.0,WSW,4.6,-,N/A,,Overcast,250,2014-02-26 02:30:00
9:50 PM,27.5,17.1,65,30.06,10.0,WSW,5.8,-,N/A,,Overcast,240,2014-02-26 02:50:00
10:10 PM,27.9,16.7,63,30.05,10.0,SW,4.6,-,N/A,,Overcast,230,2014-02-26 03:10:00
10:30 PM,28.0,16.7,62,30.06,10.0,WSW,8.1,-,N/A,,Overcast,250,2014-02-26 03:30:00
10:50 PM,27.9,17.2,64,30.04,10.0,West,6.9,-,N/A,,Overcast,260,2014-02-26 03:50:00
11:10 PM,28.0,16.9,63,30.04,10.0,West,6.9,-,N/A,,Overcast,260,2014-02-26 04:10:00
11:30 PM,27.5,17.4,66,30.03,10.0,West,3.5,-,N/A,,Overcast,280,2014-02-26 04:30:00
11:50 PM,27.5,17.4,66,30.02,10.0,West,5.8,-,N/A,,Overcast,280,2014-02-26 04:50:00